Погода в Халапе

Гватемала     14°38′01″N   89°59′28″W
темп.,
°C
ветер,
м/с
пор.,
м/с
влажн.,
%
обл.,
%
осадки,
мм/ч
давл.,
гПа
погр.,
м
13 апреля, вт
вт1300:00+21ю11696 0.9 101212
03:00+19зюз11775 1.3 101111
06:00+19юз118056 1.9 101311
09:00+26с1153100 0.1 1014721
12:00+31всв343361 0.1 10112483
15:00+31всв443099 0.0 10073085
18:00+21ююз0178100 5.4 101290
21:00+19сз1189100 13.6 1017242
14 апреля, ср
ср1400:00+18з129199 13.6 1015205
03:00+18з1188100 0.0 101460
06:00+18зсз1183100 0.0 101514
09:00+22ссв1167100 0.0 1017474
12:00+27всв224986 0.1 10141355
15:00+27всв225099 1.1 10101582
18:00+21ююв3581100 8.1 1012190
21:00+21ююв117993 0.8 101519
15 апреля, чт
чт1500:00+20зюз1184100 3.8 101541
03:00+19сз129199 0.1 101354
06:00+18зюз119197 0.1 101421
09:00+24ссз11650 0.0 1014658
12:00+28ссв214849 0.8 10111537
15:00+26в225497 4.3 10091110
18:00+22вюв247440 7.1 1011176
21:00+20ююв2280100 0.9 101345
16 апреля, пт
пт1600:00+20юв22852 1.2 101351
03:00+19ююз118820 0.0 101124
06:00+18зюз11877 0.0 101215
09:00+25в11595 0.0 1012852
12:00+28вюв224990 0.3 10091816
15:00+27юв335399 1.7 10081311
18:00+24юв2469100 2.1 1009171
21:00+20ююв238598 0.7 1012100
17 апреля, сб
сб1700:00+20ююв22875 0.7 101260
03:00+19ююз118891 0.0 101117
06:00+19ю1187100 0.0 101222
09:00+26юв12555 0.0 10131043
12:00+31в123852 0.0 10092259
15:00+27ююв334997 0.1 1007872
18:00+25юв346250 0.1 1010259
21:00+22ююв227335 0.1 1012149